FW0827 Weather Reports


Display with metric or nautical units.
time (UTC)temp
F
wind
direction
speed
MPH
gust
MPH
rain 1hr
in
rain 24hr
in
rain mn
in
humidity
%
barometer
mb
20260902224205 73 17 1.0 5.0 0.00 0.17 0.17 99 1018.1
20260902223704 73 42 1.0 5.0 0.00 0.17 0.17 99 1018.1
20260902223204 73 30 1.0 5.0 0.00 0.17 0.17 99 1018.1
20260902222721 74 29 2.0 7.0 0.00 0.17 0.17 99 1018.4
20260902222222 74 287 1.0 7.0 0.00 0.17 0.17 99 1018.4
20260902221221 74 9 0.0 3.0 0.00 0.17 0.17 99 1018.5
20260902220722 74 67 0.0 8.0 0.00 0.17 0.17 99 1018.4
20260902220221 74 66 2.0 8.0 0.00 0.17 0.17 99 1018.4
20260902215722 74 334 1.0 3.0 0.00 0.17 0.17 99 1018.4
20260902215221 74 306 0.0 1.0 0.00 0.17 0.17 99 1018.6
20260902214722 74 313 0.0 1.0 0.00 0.17 0.17 99 1018.5
20260902214221 74 329 1.0 1.0 0.00 0.17 0.17 99 1018.6
20260902213722 74 290 0.0 1.0 0.00 0.17 0.17 99 1018.8
20260902213221 73 290 0.0 0.0 0.00 0.17 0.17 99 1018.8
20260902212721 74 290 0.0 0.0 0.00 0.17 0.17 99 1018.6
20260902212222 73 290 0.0 0.0 0.00 0.17 0.17 99 1018.4
20260902211722 73 290 0.0 1.0 0.00 0.17 0.17 99 1018.4
20260902210722 73 286 0.0 1.0 0.00 0.17 0.17 99 1018.3
20260902210222 73 286 0.0 1.0 0.00 0.17 0.17 99 1018.0
20260902205722 72 296 1.0 3.0 0.00 0.17 0.17 99 1018.0
20260902205222 72 272 2.0 3.0 0.00 0.17 0.17 99 1017.9
20260902204722 73 335 0.0 3.0 0.00 0.17 0.17 99 1018.3
20260902204222 73 267 1.0 3.0 0.00 0.17 0.17 99 1018.1
20260902203723 72 267 1.0 5.0 0.00 0.17 0.17 99 1018.1
20260902201721 72 59 0.0 3.0 0.00 0.17 0.17 99 1018.5
20260902201222 72 58 2.0 3.0 0.00 0.17 0.17 99 1018.5
20260902200722 72 9 1.0 3.0 0.00 0.17 0.17 99 1018.5
20260902200221 72 33 1.0 3.0 0.00 0.17 0.17 99 1018.5
20260902195722 72 25 0.0 1.0 0.00 0.17 0.17 99 1018.7
20260902195221 72 25 0.0 7.0 0.00 0.17 0.17 99 1018.7
20260902194221 72 28 0.0 5.0 0.00 0.17 0.17 99 1018.5
20260902193721 72 37 2.0 3.0 0.00 0.17 0.17 99 1018.3
20260902193221 72 324 1.0 3.0 0.00 0.17 0.17 99 1018.4
20260902192721 71 358 1.0 8.0 0.00 0.17 0.17 99 1018.7
20260902192221 71 357 0.0 3.0 0.00 0.17 0.17 99 1018.6
20260902191723 71 62 1.0 7.0 0.00 0.17 0.17 99 1018.6
20260902191222 71 327 2.0 7.0 0.00 0.17 0.17 99 1018.5
20260902190722 71 77 3.0 8.0 0.00 0.17 0.17 99 1018.4
20260902190222 71 56 3.0 7.0 0.01 0.17 0.17 99 1018.4
20260902185722 71 87 2.0 5.0 0.02 0.17 0.17 99 1018.4
20260902185221 71 57 1.0 5.0 0.03 0.17 0.17 99 1018.6
20260902184721 71 93 2.0 5.0 0.04 0.17 0.17 99 1018.8
20260902184222 71 38 2.0 3.0 0.05 0.17 0.17 99 1018.8
20260902183721 71 25 2.0 3.0 0.07 0.17 0.17 99 1018.9
20260902182721 71 338 0.0 1.0 0.09 0.17 0.17 99 1019.0
20260902182222 71 324 0.0 0.0 0.10 0.17 0.17 99 1019.2
20260902181222 70 315 0.0 0.0 0.13 0.17 0.17 99 1019.3
20260902180726 70 324 0.0 0.0 0.15 0.17 0.17 99 1019.5
20260902180222 70 315 0.0 0.0 0.15 0.16 0.16 99 1019.6
20260902175722 70 334 0.0 1.0 0.15 0.15 0.15 99 1019.9
20260902174723 70 331 1.0 3.0 0.13 0.13 0.13 99 1020.1
20260902174222 70 274 0.0 1.0 0.12 0.12 0.12 99 1019.8
20260902173722 70 273 0.0 1.0 0.10 0.10 0.10 99 1019.6
20260902173222 70 273 0.0 0.0 0.09 0.09 0.09 99 1019.9
20260902171721 70 278 1.0 3.0 0.06 0.06 0.06 99 1020.3
20260902171222 70 301 0.0 0.0 0.04 0.04 0.04 99 1020.7
20260902170722 70 298 0.0 0.0 0.02 0.02 0.02 99 1020.5
20260902170222 71 297 0.0 0.0 0.01 0.01 0.01 99 1020.6
20260902165722 71 297 0.0 0.0 0.00 0.00 0.00 99 1020.7
20260902164721 70 294 1.0 1.0 0.00 0.00 0.00 99 1020.7
20260902164222 70 296 0.0 1.0 0.00 0.00 0.00 99 1020.9
20260902163721 70 271 0.0 1.0 0.00 0.00 0.00 99 1020.6
20260902163222 70 269 1.0 3.0 0.00 0.00 0.00 99 1020.5
20260902162721 70 270 1.0 3.0 0.00 0.00 0.00 99 1020.3
20260902162222 70 48 1.0 5.0 0.00 0.00 0.00 99 1020.5
20260902161722 70 27 1.0 5.0 0.00 0.00 0.00 99 1020.3
20260902161222 70 344 0.0 3.0 0.00 0.00 0.00 99 1020.5
20260902160722 70 276 1.0 3.0 0.00 0.00 0.00 99 1020.4
20260902160221 70 14 0.0 3.0 0.00 0.00 0.00 99 1020.3
20260902155221 70 256 1.0 5.0 0.00 0.00 0.00 99 1019.9
20260902154722 70 262 1.0 5.0 0.00 0.00 0.00 99 1019.8
20260902153222 70 319 0.0 7.0 0.00 0.00 0.00 99 1019.8
20260902152721 70 16 1.0 5.0 0.00 0.00 0.00 99 1020.0
20260902152222 70 43 1.0 5.0 0.00 0.00 0.00 99 1020.0
20260902151722 70 27 1.0 5.0 0.00 0.00 0.00 99 1020.0
20260902151222 70 62 2.0 5.0 0.00 0.00 0.00 99 1020.0
20260902150722 70 9 1.0 5.0 0.00 0.00 0.00 99 1020.1
20260902150222 70 330 1.0 7.0 0.00 0.00 0.00 99 1019.9
20260902145721 69 59 1.0 7.0 0.00 0.00 0.00 99 1020.1
20260902145222 69 57 2.0 7.0 0.00 0.00 0.00 99 1020.1
20260902144722 69 69 2.0 7.0 0.00 0.00 0.00 99 1020.4
20260902144222 69 6 1.0 5.0 0.00 0.00 0.00 99 1020.3
20260902143722 69 47 1.0 5.0 0.00 0.00 0.00 99 1020.2
20260902143222 70 59 1.0 3.0 0.00 0.00 0.00 99 1020.2
20260902141722 69 359 1.0 1.0 0.00 0.00 0.00 99 1020.3
20260902141222 69 3 1.0 5.0 0.00 0.00 0.00 99 1020.2
20260902140222 70 45 2.0 7.0 0.00 0.00 0.00 99 1020.0
20260902135722 69 34 2.0 5.0 0.00 0.00 0.00 99 1019.9
20260902135222 69 60 3.0 5.0 0.00 0.00 0.00 99 1019.9
20260902134722 69 56 2.0 5.0 0.00 0.00 0.00 99 1019.8
20260902134222 69 57 2.0 8.0 0.00 0.00 0.00 99 1019.9
20260902133722 70 65 2.0 8.0 0.00 0.00 0.00 99 1019.7
20260902132723 69 54 2.0 7.0 0.00 0.00 0.00 99 1019.7
20260902070723 68 337 0.0 0.0 0.00 0.00 0.00 99 1017.5
20260902070223 68 337 0.0 0.0 0.00 0.00 0.00 99 1017.7
20260902065722 68 337 0.0 3.0 0.00 0.00 0.00 99 1017.5
20260902065222 69 11 2.0 5.0 0.00 0.00 0.00 99 1017.5
20260902064722 68 332 0.0 3.0 0.00 0.00 0.00 99 1017.4
20260902063722 68 332 0.0 1.0 0.00 0.00 0.00 99 1017.1
20260902063223 69 332 0.0 3.0 0.00 0.00 0.00 99 1017.3
20260902062722 69 353 0.0 1.0 0.00 0.00 0.00 99 1017.2
20260902062223 69 336 0.0 5.0 0.00 0.00 0.00 99 1017.2
20260902060722 68 316 0.0 0.0 0.00 0.00 0.00 99 1017.4
20260902060234 69 298 0.0 0.0 0.00 0.00 0.00 1 1017.4
20260901234205 81 22 2.0 9.0 0.03 0.04 0.04 98 1013.4
20260901233204 82 333 2.0 3.0 0.00 0.01 0.01 94 1013.5
20260901232704 83 300 0.0 0.0 0.00 0.01 0.01 92 1013.4
20260901232205 83 300 0.0 0.0 0.00 0.01 0.01 92 1013.5
20260901231706 83 299 0.0 0.0 0.00 0.01 0.01 91 1013.5
20260901230705 83 300 0.0 0.0 0.00 0.01 0.01 90 1014.1
20260901230204 84 300 0.0 0.0 0.00 0.01 0.01 90 1013.9
20260901225704 84 300 0.0 0.0 0.00 0.01 0.01 90 1013.7
20260901224706 85 299 0.0 0.0 0.00 0.01 0.01 88 1013.7